| time (UTC) | temp C | wind direction | speed KPH | gust KPH | rain 1hr cm | rain 24hr cm | rain mn cm | humidity % | barometer mb |
| 20260507135150 | -17 | 0.0 | 0.0 | 0.00 | 0.38 | 0.23 | |||
| 20260507134150 | -17 | 0.0 | 0.0 | 0.00 | 0.43 | 0.23 | |||
| 20260507133150 | -17 | 0.0 | 0.0 | 0.00 | 0.48 | 0.23 | |||
| 20260507132150 | -17 | 0.0 | 0.0 | 0.00 | 0.58 | 0.23 | |||
| 20260507131150 | -17 | 0.0 | 0.0 | 0.00 | 0.66 | 0.23 | |||
| 20260507130150 | -17 | 0.0 | 0.0 | 0.00 | 0.74 | 0.23 | |||
| 20260507125150 | -17 | 0.0 | 0.0 | 0.00 | 0.79 | 0.23 | |||
| 20260507121150 | -17 | 0.0 | 0.0 | 0.00 | 0.81 | 0.23 | |||
| 20260507120150 | -17 | 0.0 | 0.0 | 0.00 | 0.86 | 0.23 | |||
| 20260507113149 | -17 | 0.0 | 0.0 | 0.00 | 0.91 | 0.23 | |||
| 20260507104148 | -17 | 0.0 | 0.0 | 0.00 | 0.91 | 0.23 | |||
| 20260507095148 | -17 | 0.0 | 0.0 | 0.00 | 0.91 | 0.23 | |||
| 20260507090148 | -17 | 0.0 | 0.0 | 0.00 | 0.91 | 0.23 | |||
| 20260507081148 | -17 | 0.0 | 0.0 | 0.00 | 0.91 | 0.23 | |||
| 20260507072144 | -17 | 0.0 | 0.0 | 0.00 | 0.91 | 0.23 | |||
| 20260507063144 | -17 | 0.0 | 0.0 | 0.00 | 0.91 | 0.23 | |||
| 20260507061142 | -17 | 0.0 | 0.0 | 0.03 | 0.91 | 0.23 | |||
| 20260507053142 | -17 | 0.0 | 0.0 | 0.05 | 0.91 | 0.23 | |||
| 20260507052142 | -17 | 0.0 | 0.0 | 0.03 | 0.89 | 0.20 | |||
| 20260507051142 | -17 | 0.0 | 0.0 | 0.20 | 0.89 | 0.20 | |||
| 20260507042142 | -17 | 0.0 | 0.0 | 0.18 | 0.86 | 0.18 | |||
| 20260507040142 | -17 | 0.0 | 0.0 | 0.00 | 0.69 | 0.00 | |||
| 20260507035142 | -17 | 0.0 | 0.0 | 0.00 | 0.69 | 0.69 | |||
| 20260507030141 | -17 | 0.0 | 0.0 | 0.00 | 0.69 | 0.69 | |||
| 20260507021141 | -17 | 0.0 | 0.0 | 0.00 | 0.69 | 0.69 | |||
| 20260507012140 | -17 | 0.0 | 0.0 | 0.00 | 0.69 | 0.69 | |||
| 20260507003139 | -17 | 0.0 | 0.0 | 0.00 | 0.69 | 0.69 | |||
| 20260506234138 | -17 | 0.0 | 0.0 | 0.00 | 0.69 | 0.69 | |||
| 20260506225138 | -17 | 0.0 | 0.0 | 0.00 | 0.69 | 0.69 | |||
| 20260506220136 | -17 | 0.0 | 0.0 | 0.00 | 0.69 | 0.69 | |||
| 20260506211136 | -17 | 0.0 | 0.0 | 0.00 | 0.69 | 0.69 | |||
| 20260506202134 | -17 | 0.0 | 0.0 | 0.00 | 0.69 | 0.69 | |||
| 20260506193134 | -17 | 0.0 | 0.0 | 0.00 | 0.69 | 0.69 | |||
| 20260506184132 | -17 | 0.0 | 0.0 | 0.00 | 0.69 | 0.69 | |||
| 20260506175132 | -17 | 0.0 | 0.0 | 0.00 | 0.69 | 0.69 | |||
| 20260506170132 | -17 | 0.0 | 0.0 | 0.00 | 0.69 | 0.69 | |||
| 20260506161132 | -17 | 0.0 | 0.0 | 0.00 | 0.69 | 0.69 | |||
| 20260506155132 | -17 | 0.0 | 0.0 | 0.03 | 0.69 | 0.69 | |||
| 20260506154132 | -17 | 0.0 | 0.0 | 0.08 | 0.69 | 0.69 | |||
| 20260506153132 | -17 | 0.0 | 0.0 | 0.10 | 0.69 | 0.69 | |||
| 20260506151132 | -17 | 0.0 | 0.0 | 0.13 | 0.69 | 0.69 | |||
| 20260506145131 | -17 | 0.0 | 0.0 | 0.13 | 0.66 | 0.66 | |||
| 20260506144130 | -17 | 0.0 | 0.0 | 0.13 | 0.61 | 0.61 | |||
| 20260506143129 | -17 | 0.0 | 0.0 | 0.15 | 0.58 | 0.58 | |||
| 20260506142129 | -17 | 0.0 | 0.0 | 0.23 | 0.56 | 0.56 | |||
| 20260506141129 | -17 | 0.0 | 0.0 | 0.30 | 0.56 | 0.56 |